星链-6141 (STARLINK-6141 )

导读

STARLINK-6141是美国SpaceX公司星链(Starlink)星座的成员卫星,于2023年6月23日发射。星链计划旨在近地轨道构建全球卫星互联网,为地面基础设施匮乏区域提供高速低延迟网络,支持偏远地区联网、应急通信等场景。STARLINK-6141入轨后承担宽带接入服务,助力星链实现全球无缝覆盖的网络布局。

基本信息
目录编号:
57112
目录名称:
STARLINK-6141
国际标识:
2023-090M
轨道中心:
EARTH
卫星名称:
星链-6141
卫星全名:
星链-6141 (STARLINK-6141 )
卫星状态:
在轨 (已飞行1087 天)
发射日期:
2023-06-23 UTC
国别 :
美国 (US)
星等 :
--
轨道信息
数据来源 国际轨道数据 AOE轨道数据
星历时间 2026-06-13T10:29:52+0800
1天前
查看轨道信息
2026-06-14T01:00:00+0800
1天前
查看轨道信息
半长轴 6861.187km 6861.194km
偏心率 0.0001286 0.000137
轨道倾角 43.002° 43.004°
近地点辐角 258.206° 268.913°
升交点赤经 102.800° 99.392°
平近点角 101.865° 177.986°
近地点 482.167km 482.117km
远地点 483.933km 483.997km
周期 94.267分钟 94.267分钟
每日圈数 15.275797 15.275776
详细信息
固有亮度:
5
最大亮度:
2.4
卫星平台:
Starlink v1.5
覆盖范围:
全球
运营商:
太空探索技术公司
运营商所在国:
美国
制造商(研发单位):
太空探索技术公司
制造商所在国:
美国
使用方式:
暂无
卫星简介
星链(Starlink)计划是由太空探索技术公司(SpaceX)提出的一个巨型低轨卫星互联网星座项目,计划在2019年至2024年间在太空搭建由约1.2万颗卫星组成的“星链”网络,其中1584颗将部署在地球上空550千米处的近地轨道,并从2020年开始工作。该卫星仍在工作。
2D轨道图
3D轨道图
轨道高度分析图
轨道倾角分析图
轨道综合分析图
查看轨道综合分析图